Weather in Visaginas

Lithuania     55°36′00″N   26°26′04″E
temp.,
°C
wind,
m/s
gust,
m/s
humid.,
%
clouds,
%
prec.,
mm/h
press.,
hPa
HPBL,
m
28 july, wed
wed2800:00+19s239594 2.3 101266
03:00+18s239699 2.4 101165
06:00+17sw2497100 0.0 101183
09:00+21w34835 0.0 1011434
12:00+26w455137 0.0 10101350
15:00+28w454616 0.0 10101975
18:00+27w465032 0.0 10091362
21:00+22wsw35690 0.0 100971
29 july, thu
thu2900:00+18w347832 0.0 100952
03:00+18ssw3378100 0.0 100944
06:00+18sw51385100 0.3 1008397
09:00+19sw489091 1.8 1008449
12:00+24wsw466425 0.0 10081084
15:00+27wsw574741 0.0 10072065
18:00+26w574978 0.0 10061820
21:00+20w247026 0.0 100783
30 july, fri
fri3000:00+17w378319 0.0 1008126
03:00+16w39844 0.0 1008224
06:00+14wsw379111 0.0 1008158
09:00+19wsw48615 0.0 1008795
12:00+23w71241100 0.1 10072439
15:00+21wsw6114835 0.1 10061833
18:00+20sw51054100 0.0 10051069
21:00+18sw5115887 0.0 1005564
31 july, sat
sat3100:00+16sw513690 0.0 1005399
03:00+15sw5157139 0.0 1005623
06:00+15wsw5137291 0.0 1005498
09:00+19wsw6965100 0.0 1006668
12:00+22wsw6843100 0.0 10061268
15:00+25sw5741100 0.0 10051501
18:00+23wsw4953100 0.0 10041361
21:00+18sw2382100 0.1 100356
1 august, sun
sun100:00+16sw2897100 2.1 1004241
03:00+15w3897100 2.2 1004192
06:00+13wsw38940 0.0 1005169
09:00+17wsw510780 0.0 1006639
12:00+21wsw685796 0.0 10061570
15:00+22wsw5858100 0.2 10071645
18:00+21wsw4762100 0.1 10081038
21:00+17wsw238082 0.1 100848